Simultaneous Nadir Overpasses (SNOs) Predictions

Prediction of SNOs between AQUA and METOP-B Satellite Orbit:

Table of predicted SNOs for the next 14.0 days since TLE Epoch: 4/2/2022
Index Date (AQUA) Time (AQUA) Lat,Lon (AQUA) SZA (AQUA ) Date (METOP-B) Time (METOP-B) Lat,Lon (METOP-B) SZA (METOP-B ) Distance(km) Time Diff (sec)
1 04/02/2022 22:22:52 -73.89, 18.68 111.29 04/02/2022 22:22:25 -73.90, 18.77 111.28 2.71 27
2 04/02/2022 23:12:20 73.92,-173.74 68.73 04/02/2022 23:13:04 73.94,-173.79 68.75 3.00 44
3 04/05/2022 17:07:23 73.63, -81.87 67.37 04/05/2022 17:06:12 73.60, -82.85 67.39 30.88 71
4 04/05/2022 17:56:54 -73.92, 85.13 112.34 04/05/2022 17:56:48 -73.89, 85.15 112.37 3.42 6
5 04/05/2022 18:46:22 73.95,-107.31 67.69 04/05/2022 18:47:26 73.98,-107.29 67.71 3.19 64
6 04/08/2022 12:41:27 73.86, -15.88 66.55 04/08/2022 12:40:29 73.83, -15.90 66.53 3.34 58
7 04/08/2022 13:30:54 -73.94, 151.59 113.38 04/08/2022 13:31:09 -73.92, 151.64 113.40 2.87 15
8 04/08/2022 14:20:31 74.45, -41.95 67.15 04/08/2022 14:21:38 74.45, -39.69 67.08 67.48 67
9 04/11/2022 08:15:27 73.89, 50.58 65.53 04/11/2022 08:14:51 73.86, 50.56 65.51 3.55 36
10 04/11/2022 09:04:54 -73.96,-141.94 114.41 04/11/2022 09:05:31 -73.94,-141.90 114.43 2.47 37
11 04/14/2022 02:59:51 -73.50, -49.68 115.91 04/14/2022 02:58:42 -73.44, -51.35 115.90 53.06 69
12 04/14/2022 03:49:26 73.91, 117.05 64.52 04/14/2022 03:49:12 73.92, 117.13 64.54 2.67 14
13 04/14/2022 04:38:53 -73.98, -75.46 115.42 04/14/2022 04:39:53 -73.96, -75.45 115.45 2.21 60



Historial Predications of SNOs between AQUA and METOP-B
